Location: Kuppenheim
(48.8299°N, 8.2568°E)
Time: 23:43:25
(UTC+00:00)

ERBS - Pass Details

Date: 27 October 2021
Orbit: 394 x 407 km, 57.0° (Epoch: 28 November)

Event Time Altitude Azimuth Distance (km) Brightness Sun altitude
Exits shadow 03:56:56 23° 159° (SSE) 908 4.1 -21.8°
Maximum altitude 03:57:46 26° 133° (SE) 835 4.1 -21.6°
Drops below altitude 10° 04:00:33 10° 74° (ENE) 1,466 6.1 -21.2°
Sets 04:02:50 0° 62° (ENE) 2,334 7.2 -20.8°
